User: anonymous   Login
Location: Long Point Provincial Park
(42.5794°N, 80.4103°W)
Time: 09:00:23
(UTC-04:00)
Language:

Iridium 19 - Orbit

View from above orbital plane
View from above orbital plane
View from above satellite
View from above satellite

Ground track
Ground track

The orbit data is extracted from the following two-line orbital elements,

1 24965U 97056A   17145.51735642 -.00000028 +00000-0 -17041-4 0  9993
2 24965 086.3934 328.1823 0002064 087.4932 272.6500 14.34217546029306
Epoch (UTC): 25 May 2017 12:24:59
Eccentricity: 0.0002064
inclination: 86.3934°
perigee height: 776 km
apogee height: 779 km
right ascension of ascending node: 328.1823°
argument of perigee: 87.4932°
revolutions per day: 14.34217546
mean anomaly at epoch: 272.6500°
orbit number at epoch: 2930

The dashed part of the orbit path shows where the satellite is in the earth's shadow,  

DLR